Weather History for KROW - February, 2013

Change the Weather History Date:

Tuesday, February 5, 2013

  Actual Average Record
Temperature  
Mean Temperature 49 °F 44 °F  
Max Temperature 69 °F 59 °F 79 °F (1937)
Min Temperature 29 °F 29 °F 8 °F (1982)
Degree Days  
Heating Degree Days 16 21  
Month to date heating degree days 88 109  
Since 1 July heating degree days 2001 2275  
Cooling Degree Days 0 0  
Month to date cooling degree days 0 0  
Year to date cooling degree days 0 0  
Moisture  
Dew Point 13 °F    
Average Humidity 32    
Maximum Humidity 53    
Minimum Humidity 11    
Precipitation  
Precipitation 0.00 in 0.02 in 0.61 in (2005)
Month to date precipitation 0.00 0.07  
Year to date precipitation 0.41 0.45  
Sea Level Pressure  
Sea Level Pressure 29.90 in    
Wind  
Wind Speed 4 mph (NW)    
Max Wind Speed 15 mph    
Max Gust Speed 18 mph    
Visibility 10 miles    
Events      
T = Trace of Precipitation, MM = Missing Value Source: NWS Daily Summary

Daily Weather History Graph

Daily Weather History Graph

Search for Another Location

Airport or City:

Trip Planner

Search our weather history database for the weather conditions in past years. The results will help you decide how hot, cold, wet, or windy it might be!

Date:

Astronomy

Feb. 05, 2013 Rise Set
Actual Time 6:50 AM MST 5:34 PM MST
Civil Twilight 6:24 AM MST 5:59 PM MST
Nautical Twilight 5:55 AM MST 6:29 PM MST
Astronomical Twilight 5:26 AM MST 6:58 PM MST
Moon 2:29 AM MST (2/5) 12:59 PM MST (2/5)
Length of Visible Light 11h 34m
Length of Day
10h 43m
Waning Crescent, 26% of the Moon is Illuminated
Feb 5
Waning Crescent
Feb 10
New
Feb 17
First Quarter
Feb 25
Full
Mar 4
Last Quarter

Hourly Weather History & Observations

Time (MST) Temp. Windchill Dew Point Humidity Pressure Visibility Wind Dir Wind Speed Gust Speed Precip Events Conditions
2:51 AM 34.0 °F - 12.0 °F 40% 29.88 in 10.0 mi Calm Calm - N/A   Clear
3:51 AM 33.1 °F 27.7 °F 12.9 °F 43% 29.88 in 10.0 mi SSE 5.8 mph - N/A   Clear
5:51 AM 28.9 °F 22.8 °F 14.0 °F 54% 29.94 in 10.0 mi North 5.8 mph - N/A   Clear
6:51 AM 30.0 °F 23.2 °F 12.9 °F 49% 29.97 in 10.0 mi North 6.9 mph - N/A   Clear
7:51 AM 34.0 °F 28.8 °F 12.0 °F 40% 29.98 in 10.0 mi WNW 5.8 mph - N/A   Clear
8:51 AM 41.0 °F - 14.0 °F 33% 29.99 in 10.0 mi Calm Calm - N/A   Clear
10:51 AM 59.0 °F - 18.0 °F 20% 29.94 in 10.0 mi Calm Calm - N/A   Clear
11:51 AM 64.9 °F - 16.0 °F 15% 29.91 in 10.0 mi North 8.1 mph - N/A   Clear
12:51 PM 68.0 °F - 14.0 °F 12% 29.87 in 10.0 mi North 9.2 mph 18.4 mph N/A   Clear
1:51 PM 68.0 °F - 12.9 °F 12% 29.86 in 10.0 mi North 12.7 mph - N/A   Clear
2:51 PM 68.0 °F - 12.9 °F 12% 29.85 in 10.0 mi NNE 8.1 mph - N/A   Clear
3:51 PM 68.0 °F - 14.0 °F 12% 29.85 in 10.0 mi East 4.6 mph - N/A   Clear
4:51 PM 66.9 °F - 12.0 °F 12% 29.86 in 10.0 mi Calm Calm - N/A   Clear
5:51 PM 57.0 °F - 10.9 °F 16% 29.89 in 10.0 mi SSW 4.6 mph - N/A   Clear
6:51 PM 55.9 °F - 12.0 °F 18% 29.91 in 10.0 mi West 3.5 mph - N/A   Clear
8:51 PM 45.0 °F 42.6 °F 10.9 °F 25% 29.91 in 10.0 mi West 4.6 mph - N/A   Clear
9:51 PM 42.1 °F 40.2 °F 10.9 °F 28% 29.91 in 10.0 mi West 3.5 mph - N/A   Clear
10:51 PM 43.0 °F 37.7 °F 10.0 °F 26% 29.90 in 10.0 mi WNW 9.2 mph - N/A   Clear
11:51 PM 41.0 °F - 10.0 °F 28% 29.88 in 10.0 mi Calm Calm - N/A   Clear